Tracking 30106 objects as of 23-Jan-2025
HD Live streaming from Space Station
objects crossing your sky now

OBJECT A

Track OBJECT A now!
10-day predictions


NORAD ID: 45939
Int'l Code: 2020-051A
Perigee: 505.2 km
Apogee: 513.0 km
Inclination: 97.3 °
Period: 94.7 minutes
Semi major axis: 6880 km
RCS: Unknown
Launch date: July 25, 2020
Source: People's Republic of China (PRC)
Launch site: Taiyaun Space Center, China (TSC)
Your satellite tracking list
Your tracking list is empty




NASA's NSSDC Master Catalog

Two Line Element Set (TLE):
1 45939U 20051A   25023.45000871  .00011297  00000-0  50777-3 0  9994
2 45939  97.3431 100.6888 0005637  62.0987 298.0819 15.21280427249850
Source of the keplerian elements: AFSPC